logo tempoitalia

Diretta Meteo Tubuai, Polinesia Francesedomenica 30 agosto ore 19:00

Mappa
Sereno 20 °C Sereno 24 Ore: T.min 19 T.max 24
Ponente Est Km/h 11.1 Punto di rugiada: 15 °C Umidità: 72% Visibilità: 10 Km
Il sole sorge alle: 06:09 Il sole tramonta alle: 17:46
30 Agosto 2026 19:00 tempo osservato: Sereno Sereno 20 72 1023 vento: Nord E 11.1
30 Agosto 2026 18:30 tempo osservato: Sereno Sereno 20 72 1023 vento: Nord E 16.7
30 Agosto 2026 18:00 tempo osservato: Sereno Sereno 21 64 1023 vento: Nord E 16.7
30 Agosto 2026 17:30 tempo osservato: Coperto Coperto 21 64 1022 vento: Nord E 14.8
30 Agosto 2026 17:00 tempo osservato: Coperto Coperto 21 64 1022 vento: Nord E 11.1
30 Agosto 2026 16:30 tempo osservato: Coperto Coperto 22 60 1022 vento: Nord E 14.8
30 Agosto 2026 16:00 tempo osservato: Coperto Coperto 22 60 1022 vento: Nord E 18.5
30 Agosto 2026 15:30 tempo osservato: Sereno Sereno 22 56 1022 vento: Nord E 16.7
30 Agosto 2026 15:00 tempo osservato: Sereno Sereno 23 49 1022 vento: Nord E 20.3
30 Agosto 2026 14:30 tempo osservato: Sereno Sereno 23 49 1022 vento: Nord E 18.5
30 Agosto 2026 14:00 tempo osservato: Sereno Sereno 23 49 1022 vento: Nord E 22.2
30 Agosto 2026 13:30 tempo osservato: Sereno Sereno 24 47 1023 vento: Nord E 20.3
30 Agosto 2026 13:00 tempo osservato: Sereno Sereno 23 49 1023 vento: Nord E 20.3
30 Agosto 2026 12:30 tempo osservato: Sereno Sereno 23 46 1023 vento: Nord E 22.2
30 Agosto 2026 12:00 tempo osservato: Coperto Coperto 22 53 1024 vento: Nord E/NE 22.2
30 Agosto 2026 11:30 tempo osservato: Coperto Coperto 23 53 1024 vento: Nord E/NE 29.6
30 Agosto 2026 11:00 tempo osservato: Sereno Sereno 23 49 1024 vento: Nord E 22.2
30 Agosto 2026 10:30 tempo osservato: Coperto Coperto 22 56 1025 vento: Nord E 18.5
30 Agosto 2026 10:00 tempo osservato: Coperto Coperto 22 60 1025 vento: Nord E/NE 20.3
30 Agosto 2026 09:30 tempo osservato: Coperto Coperto 22 60 1025 vento: Nord E 14.8
30 Agosto 2026 09:00 tempo osservato: Coperto Coperto 21 64 1026 vento: Nord NE 20.3
30 Agosto 2026 08:30 tempo osservato: Coperto Coperto 21 64 1026 vento: Nord E 14.8
30 Agosto 2026 08:00 tempo osservato: Coperto Coperto 20 64 1025 vento: Nord E 18.5
30 Agosto 2026 07:30 tempo osservato: Coperto Coperto 20 64 1025 vento: Nord E 11.1
30 Agosto 2026 07:00 tempo osservato: Molto Nuvoloso Molto Nuvoloso 19 72 1025 vento: Nord E/NE 16.7
30 Agosto 2026 06:30 tempo osservato: Coperto Coperto 20 59 1024 vento: Nord E 13
30 Agosto 2026 06:00 tempo osservato: Coperto Coperto 20 59 1024 vento: Nord E 11.1
30 Agosto 2026 05:30 tempo osservato: Coperto Coperto 19 63 1024 vento: Nord N 5.5
30 Agosto 2026 05:00 tempo osservato: Coperto Coperto 19 68 1024 vento: Nord N 5.5
30 Agosto 2026 04:30 tempo osservato: Coperto Coperto 19 63 1024 vento: Nord E/NE 11.1
30 Agosto 2026 04:00 tempo osservato: Coperto Coperto 19 63 1023 vento: Nord E 13
30 Agosto 2026 03:30 tempo osservato: Coperto Coperto 19 63 1024 vento: Nord E 7.4
30 Agosto 2026 03:00 tempo osservato: Coperto Coperto 19 63 1024 vento: Nord E/SE 11.1
30 Agosto 2026 02:30 tempo osservato: Coperto Coperto 19 59 1024 vento: Nord E 9.3
30 Agosto 2026 02:00 tempo osservato: Sereno Sereno 19 59 1025 vento: Nord E/SE 13
30 Agosto 2026 01:30 tempo osservato: Coperto Coperto 19 55 1025 vento: Nord E 13
30 Agosto 2026 01:00 tempo osservato: Sereno Sereno 19 52 1025 vento: Nord E/SE 11.1
30 Agosto 2026 00:30 tempo osservato: Sereno Sereno 19 55 1025 vento: Nord E 18.5
30 Agosto 2026 00:00 tempo osservato: Sereno Sereno 19 55 1025 vento: Nord E 11.1
29 Agosto 2026 23:30 tempo osservato: Sereno Sereno 19 55 1025 vento: Nord E/SE 13
29 Agosto 2026 23:00 tempo osservato: Coperto Coperto 20 56 1026 vento: Nord E 16.7
29 Agosto 2026 22:30 tempo osservato: Coperto Coperto 19 59 1026 vento: Nord E 13
29 Agosto 2026 22:00 tempo osservato: Coperto Coperto 19 59 1026 vento: Nord E 11.1
29 Agosto 2026 21:30 tempo osservato: Coperto Coperto 20 56 1026 vento: Nord E 11.1
29 Agosto 2026 21:00 tempo osservato: Coperto Coperto 20 52 1026 vento: Nord E 14.8
29 Agosto 2026 20:30 tempo osservato: Coperto Coperto 19 59 1026 vento: Nord E/SE 16.7
29 Agosto 2026 20:00 tempo osservato: Coperto Coperto 20 56 1026 vento: Nord E/SE 18.5